Location: Unspecified
(0.0000°N, 0.0000°E)
Time: 15:11:10
(UTC+00:00)

A-11 Canister half - Pass Details

Date: 23 May 2026
Orbit: 1515 x 1685 km, 47.2° (Epoch: 8 June)

Event Time Altitude Azimuth Distance (km) Brightness Sun altitude
Rises 13:58:51 0° 192° (SSW) 4,938 11.5 53.7°
Reaches altitude 10° 14:03:30 10° 174° (S) 3,943 11.0 52.8°
Maximum altitude 14:09:56 19° 134° (SE) 3,285 10.6 51.5°
Drops below altitude 10° 14:16:15 10° 94° (E) 3,887 10.9 50.2°
Sets 14:20:43 0° 77° (ENE) 4,844 11.3 49.2°
